DW2147 Weather Reports


time (UTC)temp
C
wind
direction
speed
KPH
gust
KPH
rain 1hr
cm
rain 24hr
cm
rain mn
cm
humidity
%
barometer
mb
20260507151108 13 260 8.0 16.1 0.00 0.00 0.00 45 1013.2
20260507150606 13 17 6.4 16.1 0.00 0.05 0.00 44 1013.3
20260507150107 13 207 4.8 14.5 0.00 0.08 0.00 52 1013.5
20260507145605 13 0 4.8 14.5 0.00 0.08 0.00 47 1013.5
20260507145105 13 189 6.4 14.5 0.00 0.08 0.00 48 1013.6
20260507144605 13 0 4.8 14.5 0.00 0.08 0.00 49 1013.6
20260507144106 13 0 4.8 14.5 0.00 0.08 0.00 49 1013.6
20260507143837 13 187 4.8 14.5 0.00 0.08 0.00 51 1013.8
20260507143105 13 232 4.8 12.9 0.00 0.08 0.00 52 1013.9
20260507142843 13 19 3.2 12.9 0.00 0.08 0.00 52 1013.9
20260507142605 13 0 3.2 12.9 0.00 0.08 0.00 48 1013.8
20260507141607 12 275 6.4 16.1 0.00 0.08 0.00 49 1014.0
20260507141104 12 0 8.0 16.1 0.00 0.08 0.00 50 1014.0
20260507140603 12 338 6.4 16.1 0.00 0.08 0.00 48 1014.1
20260507135602 12 0 3.2 14.5 0.00 0.08 0.00 53 1014.0
20260507135101 12 10 3.2 9.7 0.00 0.08 0.00 55 1014.2
20260507134601 12 0 4.8 11.3 0.00 0.08 0.00 53 1014.3
20260507134058 12 0 4.8 12.9 0.00 0.08 0.00 56 1014.4
20260507133557 12 0 4.8 12.9 0.00 0.08 0.00 58 1014.4
20260507133328 12 0 4.8 9.7 0.00 0.08 0.00 56 1014.5
20260507132557 12 200 6.4 12.9 0.00 0.08 0.00 58 1014.5
20260507132326 12 0 6.4 12.9 0.00 0.08 0.00 58 1014.4
20260507131556 11 0 4.8 12.9 0.00 0.08 0.00 58 1014.5
20260507131056 11 0 3.2 9.7 0.00 0.08 0.00 58 1014.3
20260507130554 11 248 4.8 9.7 0.00 0.08 0.00 57 1014.3
20260507130325 11 223 4.8 8.0 0.00 0.08 0.00 60 1014.2
20260507125822 10 0 3.2 8.0 0.00 0.08 0.00 63 1014.1
20260507125051 10 0 3.2 8.0 0.00 0.08 0.00 64 1014.1
20260507124551 10 163 3.2 6.4 0.00 0.08 0.00 64 1014.1
20260507124050 10 186 3.2 8.0 0.00 0.08 0.00 64 1014.1
20260507123550 9 151 3.2 8.0 0.00 0.08 0.00 65 1014.1
20260507123051 8 0 3.2 8.0 0.00 0.10 0.00 65 1014.0
20260507122550 8 159 3.2 6.4 0.00 0.10 0.00 66 1014.1
20260507122048 8 0 4.8 6.4 0.00 0.10 0.00 68 1013.9
20260507121545 7 141 3.2 6.4 0.00 0.10 0.00 69 1014.0
20260507121320 7 0 3.2 6.4 0.00 0.10 0.00 70 1014.0
20260507120545 7 138 3.2 6.4 0.00 0.10 0.00 71 1013.8
20260507120046 6 89 3.2 4.8 0.00 0.10 0.00 72 1013.7
20260507115544 6 69 3.2 4.8 0.00 0.10 0.00 72 1013.6
20260507115316 5 67 3.2 4.8 0.00 0.10 0.00 72 1013.7
20260507114543 5 67 1.6 3.2 0.00 0.10 0.00 72 1013.5
20260507114042 5 69 0.0 3.2 0.00 0.10 0.00 71 1013.5
20260507113543 5 0 0.0 0.0 0.00 0.10 0.00 71 1013.4
20260507113040 4 0 0.0 0.0 0.00 0.10 0.00 71 1013.2
20260507112541 4 0 0.0 0.0 0.00 0.10 0.00 71 1013.2
20260507112040 4 0 0.0 0.0 0.00 0.10 0.00 71 1013.1
20260507111538 4 0 0.0 0.0 0.00 0.10 0.00 71 1013.1
20260507111037 4 0 0.0 0.0 0.00 0.10 0.00 71 1012.9
20260507110535 4 0 0.0 0.0 0.00 0.10 0.00 71 1012.8
20260507110037 4 0 0.0 0.0 0.00 0.13 0.00 71 1012.7
20260507105807 4 0 0.0 0.0 0.00 0.15 0.00 71 1012.7
20260507105036 4 0 0.0 0.0 0.00 0.15 0.00 71 1012.7
20260507104534 4 0 0.0 0.0 0.00 0.15 0.00 71 1012.7
20260507104034 4 0 0.0 0.0 0.00 0.18 0.00 71 1012.7
20260507103534 5 0 0.0 0.0 0.00 0.18 0.00 71 1012.6
20260507103034 5 0 0.0 0.0 0.00 0.20 0.00 72 1012.5
20260507102533 5 0 0.0 0.0 0.00 0.23 0.00 71 1012.6
20260507102032 5 0 0.0 0.0 0.00 0.28 0.00 71 1012.5
20260507101531 5 0 0.0 0.0 0.00 0.28 0.00 71 1012.6
20260507101302 5 0 0.0 0.0 0.00 0.33 0.00 71 1012.5
20260507100529 5 0 0.0 0.0 0.00 0.36 0.00 71 1012.5
20260507100028 5 0 0.0 0.0 0.00 0.41 0.00 71 1012.5
20260507095526 5 0 0.0 0.0 0.00 0.41 0.00 71 1012.5
20260507095026 5 0 0.0 0.0 0.00 0.41 0.00 71 1012.5
20260507094524 5 0 0.0 0.0 0.00 0.43 0.00 70 1012.5
20260507094024 6 0 0.0 0.0 0.00 0.43 0.00 70 1012.6
20260507093525 6 0 0.0 0.0 0.00 0.48 0.00 70 1012.6
20260507093023 6 0 0.0 0.0 0.00 0.51 0.00 71 1012.5
20260507092520 6 0 0.0 0.0 0.00 0.53 0.00 70 1012.6
20260507092021 6 0 0.0 0.0 0.00 0.56 0.00 70 1012.6
20260507091519 6 0 0.0 0.0 0.00 0.58 0.00 69 1012.6
20260507091018 6 0 0.0 0.0 0.00 0.58 0.00 69 1012.7
20260507090518 6 0 0.0 0.0 0.00 0.58 0.00 69 1012.6
20260507090016 6 0 0.0 0.0 0.00 0.61 0.00 69 1012.8
20260507085514 6 0 0.0 0.0 0.00 0.61 0.00 69 1012.8
20260507085013 6 0 0.0 0.0 0.00 0.64 0.00 69 1012.7
20260507084514 7 0 0.0 0.0 0.00 0.64 0.00 68 1013.4
20260507084013 7 0 0.0 0.0 0.00 0.66 0.00 67 1013.4
20260507083514 7 0 0.0 0.0 0.00 0.69 0.00 66 1013.4
20260507083013 7 0 0.0 0.0 0.00 0.69 0.00 66 1013.4
20260507082742 7 0 0.0 0.0 0.00 0.69 0.00 66 1013.4
20260507082003 7 0 0.0 0.0 0.00 0.69 0.00 66 1013.3
20260507081501 7 0 0.0 0.0 0.00 0.69 0.00 65 1013.4
20260507081000 8 0 0.0 0.0 0.00 0.69 0.00 66 1013.4
20260507080458 8 0 0.0 0.0 0.00 0.69 0.00 66 1013.4
20260507075957 8 0 0.0 0.0 0.00 0.71 0.00 66 1013.3
20260507075452 8 0 0.0 0.0 0.00 0.71 0.00 66 1013.2
20260507074950 8 0 0.0 0.0 0.00 0.71 0.00 66 1013.3
20260507074719 8 0 0.0 0.0 0.00 0.71 0.00 66 1013.2
20260507073946 8 0 0.0 0.0 0.00 0.71 0.00 66 1013.2
20260507073446 8 0 0.0 0.0 0.00 0.71 0.00 66 1013.1
20260507072940 8 0 0.0 0.0 0.00 0.71 0.00 66 1013.1
20260507072437 8 0 0.0 3.2 0.00 0.71 0.00 66 1013.0
20260507071940 9 0 0.0 0.0 0.00 0.71 0.00 65 1013.1
20260507071936 9 0 0.0 3.2 0.00 0.71 0.00 66 1013.0
20260507070933 9 0 0.0 0.0 0.00 0.71 0.00 65 1013.0
20260507070428 9 0 0.0 0.0 0.00 0.71 0.00 65 1013.0
20260507065926 9 0 0.0 3.2 0.00 0.71 0.00 65 1013.1
20260507065427 9 0 1.6 4.8 0.00 0.71 0.00 65 1013.1
20260507065200 9 0 1.6 6.4 0.00 0.71 0.00 64 1013.2
20260507064428 9 0 3.2 6.4 0.00 0.71 0.00 64 1013.2
20260507063930 9 0 3.2 6.4 0.00 0.71 0.00 64 1013.1
20260507063423 9 349 3.2 12.9 0.00 0.71 0.00 65 1013.1
20260507062923 9 23 3.2 12.9 0.00 0.71 0.00 65 1013.1
20260507062423 9 0 3.2 8.0 0.00 0.71 0.00 65 1013.1
20260507061924 9 0 3.2 8.0 0.00 0.71 0.00 65 1013.2
20260507061422 9 349 1.6 4.8 0.00 0.71 0.00 65 1013.1
20260507061154 9 337 1.6 4.8 0.00 0.71 0.00 65 1013.2
20260507060653 10 0 1.6 4.8 0.00 0.71 0.00 65 1013.3
20260507055919 10 0 1.6 8.0 0.00 0.71 0.00 66 1013.2
20260507055419 10 0 3.2 8.0 0.00 0.71 0.00 66 1013.2
20260507054916 10 0 1.6 4.8 0.00 0.71 0.00 66 1013.4
20260507054416 10 0 1.6 4.8 0.00 0.71 0.00 66 1013.4
20260507053916 10 0 1.6 4.8 0.00 0.71 0.00 65 1013.4
20260507053409 10 0 3.2 8.0 0.00 0.71 0.00 65 1013.5
20260507052909 10 0 3.2 8.0 0.00 0.71 0.00 65 1013.6
20260507052410 10 0 3.2 6.4 0.00 0.71 0.00 65 1013.7
20260507051910 10 0 3.2 6.4 0.00 0.71 0.00 65 1013.8
20260507051410 10 344 1.6 4.8 0.00 0.71 0.00 65 1013.7
20260507050912 10 0 1.6 4.8 0.00 0.71 0.00 65 1013.7
20260507050404 10 340 1.6 4.8 0.00 0.71 0.00 65 1013.7
20260507045906 10 342 3.2 6.4 0.00 0.71 0.00 65 1013.7
20260507045403 10 0 3.2 6.4 0.00 0.71 0.00 64 1013.7
20260507045136 10 344 3.2 6.4 0.00 0.71 0.00 65 1013.8
20260507044404 10 0 3.2 4.8 0.00 0.71 0.00 64 1013.7
20260507043904 10 0 1.6 4.8 0.00 0.71 0.00 64 1013.6
20260507043358 10 0 1.6 4.8 0.00 0.71 0.00 64 1013.7
20260507042857 10 0 1.6 4.8 0.00 0.71 0.00 64 1013.6
20260507042630 10 327 1.6 4.8 0.00 0.71 0.00 64 1013.4
20260507041858 10 0 1.6 4.8 0.00 0.71 0.00 64 1013.5
20260507041358 10 327 1.6 3.2 0.00 0.71 0.00 64 1013.5
20260507040858 10 0 1.6 4.8 0.00 0.71 0.00 64 1013.6
20260507040353 10 0 1.6 4.8 0.00 0.71 0.00 64 1013.5
20260507040124 10 0 0.0 4.8 0.00 0.71 0.71 64 1013.5
20260507035353 10 0 0.0 0.0 0.00 0.71 0.71 65 1013.5
20260507034852 10 322 1.6 3.2 0.00 0.71 0.71 65 1013.5
20260507034350 10 323 1.6 4.8 0.00 0.71 0.71 66 1013.6
20260507033853 10 323 1.6 4.8 0.00 0.71 0.71 66 1013.7
20260507033345 10 323 1.6 3.2 0.00 0.71 0.71 66 1013.4
20260507033115 10 324 1.6 4.8 0.00 0.71 0.71 67 1013.6
20260507032346 10 321 1.6 4.8 0.00 0.71 0.71 68 1013.5
20260507031846 10 323 1.6 6.4 0.00 0.71 0.71 68 1013.8
20260507031616 11 0 1.6 6.4 0.00 0.71 0.71 69 1013.7
20260507031116 11 0 3.2 6.4 0.00 0.71 0.71 69 1013.4
20260507030342 11 329 1.6 4.8 0.00 0.71 0.71 70 1013.4
20260507030337 11 0 3.2 6.4 0.00 0.71 0.71 70 1013.3
20260507025340 11 0 0.0 0.0 0.00 0.71 0.71 70 1013.2
20260507024838 11 317 0.0 0.0 0.00 0.71 0.71 69 1013.1
20260507024339 11 318 0.0 0.0 0.00 0.71 0.71 70 1013.0
20260507023837 11 318 0.0 0.0 0.00 0.71 0.71 69 1013.2
20260507023336 11 0 0.0 0.0 0.00 0.71 0.71 69 1012.9
20260507022834 11 317 0.0 0.0 0.00 0.71 0.71 69 1012.9
20260507022330 11 0 0.0 0.0 0.00 0.71 0.71 69 1012.7
20260507022102 11 318 0.0 0.0 0.00 0.71 0.71 69 1012.6
20260507021331 11 0 0.0 0.0 0.00 0.71 0.71 69 1012.4
20260507020827 11 318 0.0 0.0 0.00 0.71 0.71 69 1012.4
20260507020325 11 0 0.0 0.0 0.00 0.71 0.71 69 1012.5
20260507015824 11 0 0.0 0.0 0.00 0.71 0.71 69 1012.5
20260507015555 11 0 0.0 0.0 0.00 0.71 0.71 69 1012.3
20260507014823 11 318 0.0 0.0 0.00 0.71 0.71 69 1012.1
20260507014328 11 318 0.0 0.0 0.00 0.71 0.71 68 1011.9
20260507014324 11 317 0.0 0.0 0.00 0.71 0.71 68 1012.1
20260507013320 11 317 0.0 0.0 0.00 0.71 0.71 68 1012.1
20260507012820 11 317 0.0 0.0 0.00 0.71 0.71 68 1012.2
20260507012320 11 0 0.0 0.0 0.00 0.71 0.71 68 1012.3
20260507011820 11 0 0.0 0.0 0.00 0.71 0.71 68 1011.9
20260507011319 11 317 0.0 0.0 0.00 0.71 0.71 68 1011.7
20260507011050 11 317 0.0 0.0 0.00 0.71 0.71 68 1011.8
20260507010315 11 317 0.0 0.0 0.00 0.71 0.71 68 1011.8
20260507005815 11 317 0.0 0.0 0.00 0.71 0.71 68 1011.7
20260507005316 11 317 0.0 0.0 0.00 0.71 0.71 67 1011.6
20260507004812 11 0 0.0 0.0 0.00 0.71 0.71 67 1011.8
20260507004313 11 0 0.0 0.0 0.00 0.71 0.71 67 1011.9
20260507004043 11 0 0.0 0.0 0.00 0.71 0.71 67 1011.9
20260507003310 11 317 0.0 0.0 0.00 0.71 0.71 67 1011.7
20260507002809 11 0 0.0 0.0 0.00 0.71 0.71 66 1012.0
20260507002311 11 0 0.0 0.0 0.00 0.71 0.71 66 1012.0
20260507002039 11 0 0.0 0.0 0.00 0.71 0.71 66 1011.9
20260507001308 11 0 0.0 0.0 0.00 0.71 0.71 66 1011.9
20260507000808 11 0 0.0 0.0 0.00 0.71 0.71 66 1012.2
20260507000306 11 319 0.0 1.6 0.00 0.71 0.71 66 1012.6
20260506235806 11 0 0.0 3.2 0.00 0.71 0.71 66 1012.5
20260506235307 11 0 0.0 3.2 0.00 0.71 0.71 66 1012.2
20260506234805 11 318 0.0 3.2 0.00 0.71 0.71 66 1012.1
20260506234531 11 319 1.6 3.2 0.00 0.71 0.71 66 1012.0
20260506233802 11 317 1.6 3.2 0.00 0.71 0.71 66 1012.0
20260506233257 11 0 1.6 3.2 0.00 0.71 0.71 65 1011.6
20260506232800 11 0 1.6 4.8 0.00 0.71 0.71 65 1011.8
20260506232531 12 318 1.6 4.8 0.00 0.71 0.71 65 1012.1
20260506231755 12 0 0.0 3.2 0.00 0.71 0.71 65 1011.9
20260506231254 12 319 0.0 3.2 0.00 0.71 0.71 65 1011.8
20260506230753 12 321 0.0 4.8 0.00 0.71 0.71 65 1011.8
20260506230251 12 321 0.0 4.8 0.00 0.71 0.71 65 1011.8
20260506225753 12 0 0.0 3.2 0.00 0.71 0.71 65 1011.7
20260506225525 12 0 1.6 3.2 0.00 0.71 0.71 65 1011.6
20260506224750 12 0 3.2 8.0 0.00 0.71 0.71 65 1011.6
20260506224254 12 0 1.6 9.7 0.00 0.71 0.71 65 1011.4
20260506224249 12 0 3.2 9.7 0.00 0.71 0.71 65 1011.6
20260506223247 12 333 3.2 4.8 0.00 0.71 0.71 65 1011.4
20260506222746 12 0 3.2 6.4 0.00 0.71 0.71 65 1011.6
20260506222245 12 334 3.2 6.4 0.00 0.71 0.71 65 1011.4
20260506222017 12 0 3.2 8.0 0.00 0.71 0.71 65 1011.4
20260506221517 12 336 3.2 8.0 0.00 0.71 0.71 65 1011.6
20260506220744 12 0 4.8 9.7 0.00 0.71 0.71 65 1011.4
20260506220241 12 323 4.8 9.7 0.00 0.71 0.71 65 1011.2
20260506215741 12 0 4.8 9.7 0.00 0.71 0.71 65 1011.2
20260506215241 12 0 4.8 8.0 0.00 0.71 0.71 65 1011.1
20260506214740 12 0 6.4 14.5 0.00 0.71 0.71 65 1011.1
20260506214242 12 0 8.0 14.5 0.00 0.71 0.71 65 1011.0
20260506213739 12 11 6.4 12.9 0.00 0.71 0.71 65 1010.9
20260506213238 12 0 4.8 9.7 0.00 0.71 0.71 65 1011.0
20260506212738 12 0 4.8 9.7 0.00 0.71 0.71 65 1010.8
20260506212511 12 328 4.8 12.9 0.00 0.71 0.71 64 1010.7
20260506211737 12 0 4.8 12.9 0.00 0.71 0.71 64 1010.7
20260506211235 12 13 4.8 12.9 0.00 0.71 0.71 64 1010.7
20260506210735 12 0 4.8 12.9 0.00 0.71 0.71 64 1010.7
20260506210507 12 0 3.2 12.9 0.00 0.71 0.71 64 1010.6
20260506205734 13 0 1.6 6.4 0.00 0.71 0.71 65 1010.5
20260506205504 13 0 3.2 6.4 0.00 0.71 0.71 65 1010.5
20260506204735 13 0 4.8 9.7 0.00 0.71 0.71 65 1010.4
20260506204233 12 0 4.8 9.7 0.00 0.71 0.71 65 1010.3
20260506203733 12 0 4.8 9.7 0.00 0.71 0.71 65 1010.2
20260506203232 12 0 3.2 11.3 0.00 0.71 0.71 66 1010.2
20260506202732 12 61 4.8 14.5 0.00 0.71 0.71 65 1010.2
20260506202232 12 0 3.2 14.5 0.00 0.71 0.71 65 1010.2
20260506201733 12 0 3.2 9.7 0.00 0.71 0.71 65 1010.3
20260506201231 12 0 3.2 6.4 0.00 0.71 0.71 65 1010.1
20260506200731 12 0 3.2 12.9 0.00 0.71 0.71 65 1010.0
20260506200228 12 0 6.4 17.7 0.00 0.71 0.71 65 1010.1
20260506195729 12 0 8.0 17.7 0.00 0.71 0.71 66 1010.1
20260506195228 12 0 8.0 16.1 0.00 0.71 0.71 66 1010.1
20260506194727 12 312 6.4 16.1 0.00 0.71 0.71 66 1009.9
20260506194458 12 0 3.2 12.9 0.00 0.71 0.71 67 1010.2
20260506193727 12 269 4.8 12.9 0.00 0.71 0.71 67 1010.0
20260506193227 12 338 6.4 17.7 0.00 0.71 0.71 67 1009.9
20260506192727 12 0 6.4 17.7 0.00 0.71 0.71 68 1009.9
20260506192227 12 26 3.2 12.9 0.00 0.71 0.71 69 1010.0
20260506191725 12 311 4.8 12.9 0.00 0.71 0.71 70 1010.1
20260506191226 11 348 4.8 12.9 0.00 0.71 0.71 70 1009.9
20260506190725 11 0 4.8 12.9 0.00 0.71 0.71 70 1010.0
20260506190226 11 0 6.4 14.5 0.00 0.71 0.71 70 1010.0
20260506185726 11 0 8.0 14.5 0.00 0.71 0.71 70 1010.0
20260506185223 11 0 8.0 19.3 0.00 0.71 0.71 70 1010.0
20260506184728 11 348 8.0 19.3 0.00 0.71 0.71 70 1010.0
20260506184722 11 336 9.7 19.3 0.00 0.71 0.71 70 1010.0
20260506183722 11 0 6.4 14.5 0.00 0.71 0.71 71 1009.8
20260506183226 11 13 8.0 19.3 0.00 0.71 0.71 71 1009.7
20260506183221 11 321 8.0 19.3 0.00 0.71 0.71 70 1009.7
20260506182219 11 0 6.4 16.1 0.00 0.71 0.71 71 1009.9
20260506181718 11 0 4.8 14.5 0.00 0.71 0.71 71 1009.8
20260506181218 11 0 4.8 14.5 0.00 0.71 0.71 72 1009.8
20260506180717 11 329 6.4 14.5 0.00 0.71 0.71 72 1009.9
20260506180215 11 339 6.4 14.5 0.00 0.71 0.71 72 1009.8
20260506175714 11 0 4.8 9.7 0.00 0.71 0.71 72 1009.7
20260506175215 11 0 4.8 8.0 0.00 0.71 0.71 72 1009.6
20260506174716 11 343 4.8 12.9 0.00 0.71 0.71 72 1009.7
20260506174452 11 0 6.4 16.1 0.00 0.71 0.71 72 1009.5
20260506174216 11 0 4.8 12.9 0.00 0.71 0.71 73 1009.6
20260506172714 11 313 6.4 16.1 0.00 0.71 0.71 73 1009.5
20260506172214 11 338 4.8 16.1 0.00 0.71 0.71 73 1009.4
20260506171714 11 0 8.0 17.7 0.00 0.71 0.71 72 1009.4
20260506171213 11 0 8.0 17.7 0.00 0.71 0.71 72 1009.4
20260506170713 11 342 6.4 17.7 0.00 0.71 0.71 72 1009.4
20260506170443 11 0 4.8 14.5 0.00 0.71 0.71 72 1009.4
20260506165945 11 0 4.8 14.5 0.00 0.71 0.71 72 1009.2
20260506165211 12 0 3.2 8.0 0.00 0.71 0.71 73 1009.2
20260506164711 12 38 3.2 6.4 0.00 0.71 0.71 73 1009.1
20260506164212 12 0 3.2 8.0 0.00 0.71 0.71 73 1009.0
20260506163712 12 0 3.2 8.0 0.00 0.71 0.71 73 1008.8
20260506163209 11 0 3.2 8.0 0.00 0.71 0.71 72 1008.8
20260506162708 11 0 3.2 9.7 0.00 0.71 0.71 72 1008.8
20260506162208 11 0 3.2 9.7 0.00 0.71 0.71 72 1008.7
20260506161707 11 296 3.2 8.0 0.00 0.71 0.71 72 1008.7
20260506161207 11 0 3.2 8.0 0.00 0.71 0.71 72 1008.7
20260506160712 11 13 6.4 14.5 0.08 0.71 0.71 72 1008.6
20260506160708 11 22 4.8 11.3 0.03 0.71 0.71 72 1008.7
20260506155706 11 16 6.4 17.7 0.08 0.71 0.71 72 1008.6
20260506155207 12 26 8.0 17.7 0.08 0.71 0.71 72 1008.6
20260506154707 12 26 8.0 14.5 0.08 0.71 0.71 71 1008.5
20260506154207 12 332 8.0 20.9 0.08 0.71 0.71 71 1008.4
20260506153707 12 0 11.3 20.9 0.08 0.71 0.71 71 1008.3
20260506153205 12 0 12.9 20.9 0.08 0.71 0.71 71 1008.1
20260506152707 12 0 9.7 20.9 0.08 0.71 0.71 71 1008.0
20260506152205 13 0 8.0 16.1 0.08 0.71 0.71 71 1008.1
20260506151701 13 0 9.7 19.3 0.08 0.71 0.71 70 1008.0